Regional Weather Roundup
Issued by NWS

Home | Current Version | Previous Version | Text Only | Print | Product List | Glossary Off
Versions: 1 2 3 4 5 6 7 8 9 10 11 12 13 14 15 16 17 18 19 20 21 22 23 24 25 26 27

000
ASUS45 KBOU 022007
RWRCO

WEATHER ROUNDUP FOR COLORADO
NATIONAL WEATHER SERVICE DENVER/BOULDER CO
200 PM MDT MON MAY 02 2016

NOTE: "FAIR" INDICATES FEW OR NO CLOUDS BELOW 12000 FEET WITH NO
SIGNIFICANT WEATHER AND/OR OBSTRUCTIONS TO VISIBILITY.

COZ001>005-013-030-031-022100-
...NORTHWEST COLORADO...

CITY           SKY/WX    TMP DP  RH WIND       PRES   REMARKS
CRAIG          FAIR      57  27  31 NW6       30.22F
HAYDEN         FAIR      54  25  32 NW7       30.22F
MEEKER         FAIR      58  26  29 SW12G20   30.21F
MOUNT WERNER   NOT AVBL
STEAMBOAT SPGS FAIR      50  25  36 NW5       30.22F
WALDEN         FAIR      50  23  34 NW10      30.25S
$$

COZ006>008-011-022100-
...WEST CENTRAL VALLEYS...

CITY           SKY/WX    TMP DP  RH WIND       PRES   REMARKS
GRAND JUNCTION FAIR      61  34  36 W6        30.18F
MONTROSE       FAIR      59  31  34 N6        30.22F
EAGLE          MOSUNNY   57  21  24 E6          N/A
RIFLE          FAIR      62  28  27 N5        30.17F
DELTA          NOT AVBL
NUCLA          NOT AVBL
$$

COZ017>023-064>068-022100-
...SOUTHWEST COLORADO...

CITY           SKY/WX    TMP DP  RH WIND       PRES   REMARKS
DURANGO        FAIR      52  34  50 CALM      30.23F
CORTEZ         PTSUNNY   57  35  43 S14       30.22F
PAGOSA SPRINGS FAIR      49  34  55 NW6       30.25F
TELLURIDE      PTSUNNY   46  30  54 W10       30.28F
WOLF CREEK PAS CLOUDY    28  28 100 SW9       30.36S FOG     WCI  20
$$

COZ009-010-012-014-032>034-037-058>063-022100-
...CENTRAL COLORADO...

CITY           SKY/WX    TMP DP  RH WIND       PRES   REMARKS
ASPEN          FAIR      54  23  30 NW12      30.20F
BUENA VISTA    FAIR      51  26  37 S3        30.20F
COPPER MTN     NOT AVBL
BERTHOUD PASS  FAIR      21  12  68 N13G25    30.33S WCI   9
COTTONWOOD PAS FAIR      46  27  46 E5        30.27S
GUNNISON       FAIR      52  27  37 SW6       30.24F
KREMMLING      FAIR      54  19  26 N9        30.21F
LEADVILLE      FAIR      42  15  33 MISG      30.24F
MONARCH PASS   PTSUNNY   27  25  93 MISG      30.43S
SALIDA         FAIR      57  25  29 E7        30.27F
SUNLIGHT       FAIR      36  28  75 CALM      30.36S
WILKERSON PASS FAIR      36  27  69 CALM      30.33S
$$

COZ069>075-022100-
...SAN LUIS VALLEY/SANGRE DE CRISTO MOUNTAINS...

CITY           SKY/WX    TMP DP  RH WIND       PRES   REMARKS
ALAMOSA        FAIR      50  29  44 N5        30.22F
LA VETA PASS   PTSUNNY   39  32  75 S5        30.29S
SAGUACHE       FAIR      52  27  37 SW6       30.22F
$$

COZ035-036-038>040-022100-
...NORTHERN COLORADO FRONT RANGE...

CITY           SKY/WX    TMP DP  RH WIND       PRES   REMARKS
DENVER INTL AP FAIR      55  23  28 VRB5      30.17F
DMNS CITY PARK   N/A     56  22  26 W3G10     30.15F
AURORA         FAIR      53  27  36 VRB1      30.18F
FRONT RANGE AP MOSUNNY   50  30  46 S6        30.18F
ERIE MUNI ARPT FAIR      56  24  28 N3        30.17F
BOULDER MUN AP FAIR      55  27  33 NE6       30.17S
CENTENNIAL     FAIR      50  23  34 VRB3      30.18F
BROOMFIELD     MOSUNNY   55  25  30 NW3       30.18F
FORT COLLINS   FAIR      54  25  32 W7        30.18F
LONGMONT       FAIR      59  27  28 NE3       30.18F
$$

COZ041-046-047-076>085-087-088-022100-
...PIKES PEAK/PALMER DIVIDE AND SOUTHERN FOOTHILLS...

CITY           SKY/WX    TMP DP  RH WIND       PRES   REMARKS
COLO. SPRINGS  FAIR      55  21  26 VRB5      30.20F
A. F. ACADEMY  FAIR      50  19  29 N9        30.19F
SCHRIEVER AFB  NOT AVBL
ELLICOTT       MIX PCPN N/A N/A N/A N5        30.19F
FALCON         FAIR      53  13  20 N9        30.22S
FORT CARSON    FAIR      55  30  38 SE7       30.18F
LIMON          FAIR      45  29  53 NW8       30.21F
MONUMENT HILL  FAIR      43  25  49 CALM      30.23S
TRINIDAD       FAIR      52  32  46 CALM      30.20F
$$

COZ042>045-048>051-090-091-022100-
...NORTHEAST COLORADO...

CITY           SKY/WX    TMP DP  RH WIND       PRES   REMARKS
GREELEY ARPT   FAIR      55  19  24 NW5       30.17F
AKRON          FAIR      55  25  31 NW9       30.16F
BURLINGTON     FAIR      58  27  30 NW14      30.17F
WRAY           NOT AVBL
STERLING       FAIR      59  30  33 NW7       30.13F
HOLYOKE        NOT AVBL
FORT MORGAN    FAIR      57  20  23 W6        30.17S
$$

COZ086-089-092>099-022100-
...SOUTHEAST COLORADO...

CITY           SKY/WX    TMP DP  RH WIND       PRES   REMARKS
PUEBLO         FAIR      58  30  34 E6        30.18F
LA JUNTA       FAIR      58  32  37 VRB7      30.18F
LAMAR          FAIR      59  28  30 NW8       30.16F
SPRINGFIELD      N/A     56  33  42 NW12G18   30.18F
$$




USA.gov is the U.S. government's official web portal to all federal, state and local government web resources and services.